TKJ1NS LTFJ-LTCA

Flight info

Callsign TKJ1NS
Flight time 1h 54m
Altitude 27000
Route VICEN T57 VEVUD/N0469F350 UT341 BAG UL614 BULUT
Aircraft B738/M-SDE2E3FGHIRWXY/LB1

Departure

Time 2026-05-04 18:36
Airport Istanbul Sabiha Gökçen International Airport (LTFJ)

Arrival

Time 2026-05-04 20:31
Airport Elazığ Airport (LTCA)
Time Latitude Longitude Altitude Speed Heading
2026-05-04 17:46 40.90642 29.31732 320 ft 0 kts 334°
2026-05-04 18:23 40.90619 29.31746 318 ft 4 kts 338°
2026-05-04 18:23 40.90594 29.31756 320 ft 4 kts 352°
2026-05-04 18:23 40.90570 29.31754 318 ft 4 kts 40°
2026-05-04 18:23 40.90564 29.31746 319 ft 0 kts 64°
2026-05-04 18:30 40.90566 29.31753 318 ft 1 kts 64°
2026-05-04 18:30 40.90572 29.31770 319 ft 3 kts 64°
2026-05-04 18:30 40.90589 29.31815 319 ft 7 kts 64°
2026-05-04 18:31 40.90612 29.31879 319 ft 8 kts 64°
2026-05-04 18:31 40.90636 29.31941 320 ft 7 kts 64°
2026-05-04 18:31 40.90658 29.32002 320 ft 7 kts 65°
2026-05-04 18:31 40.90679 29.32061 320 ft 7 kts 64°
2026-05-04 18:32 40.90700 29.32118 318 ft 7 kts 64°
2026-05-04 18:32 40.90720 29.32174 320 ft 7 kts 64°
2026-05-04 18:32 40.90739 29.32239 320 ft 8 kts 90°
2026-05-04 18:32 40.90697 29.32290 320 ft 9 kts 154°
2026-05-04 18:33 40.90644 29.32324 319 ft 8 kts 154°
2026-05-04 18:33 40.90600 29.32349 318 ft 0 kts 159°
2026-05-04 18:33 40.90598 29.32353 318 ft 1 kts 131°
2026-05-04 18:33 40.90589 29.32380 319 ft 6 kts 114°
2026-05-04 18:34 40.90568 29.32423 320 ft 6 kts 136°
2026-05-04 18:34 40.90534 29.32452 318 ft 6 kts 156°
2026-05-04 18:34 40.90493 29.32477 319 ft 6 kts 153°
2026-05-04 18:34 40.90447 29.32498 318 ft 8 kts 192°
2026-05-04 18:35 40.90414 29.32444 318 ft 8 kts 244°
2026-05-04 18:35 40.90376 29.32338 318 ft 33 kts 244°
2026-05-04 18:35 40.90167 29.31772 320 ft 103 kts 244°
2026-05-04 18:35 40.89765 29.30670 321 ft 161 kts 246°
2026-05-04 18:36 40.89255 29.29192 692 ft 180 kts 247°
2026-05-04 18:36 40.88730 29.27793 1760 ft 165 kts 245°
2026-05-04 18:36 40.88128 29.26429 2338 ft 179 kts 245°
2026-05-04 18:36 40.87563 29.24858 2570 ft 204 kts 252°
2026-05-04 18:37 40.86961 29.23039 2752 ft 227 kts 251°
2026-05-04 18:37 40.86282 29.21056 3017 ft 245 kts 250°
2026-05-04 18:37 40.85551 29.18964 3483 ft 257 kts 250°
2026-05-04 18:37 40.84601 29.16942 3977 ft 268 kts 229°
2026-05-04 18:38 40.82950 29.15771 4003 ft 280 kts 190°
2026-05-04 18:38 40.80998 29.16095 4312 ft 291 kts 152°
2026-05-04 18:38 40.79232 29.17385 5023 ft 294 kts 149°
2026-05-04 18:38 40.77383 29.18615 5670 ft 300 kts 151°
2026-05-04 18:39 40.75494 29.19829 6409 ft 302 kts 149°
2026-05-04 18:39 40.73854 29.21491 7070 ft 296 kts 127°
2026-05-04 18:39 40.72460 29.23479 7763 ft 296 kts 128°
2026-05-04 18:39 40.71051 29.25475 8471 ft 298 kts 128°
2026-05-04 18:40 40.69633 29.27464 9231 ft 297 kts 129°
2026-05-04 18:40 40.68208 29.29451 9905 ft 300 kts 129°
2026-05-04 18:40 40.66756 29.31468 10348 ft 310 kts 129°
2026-05-04 18:40 40.65221 29.33598 10495 ft 330 kts 129°
2026-05-04 18:41 40.63590 29.35853 10654 ft 349 kts 129°
2026-05-04 18:41 40.61869 29.38225 10800 ft 367 kts 130°
2026-05-04 18:41 40.60145 29.40797 10938 ft 379 kts 119°
2026-05-04 18:41 40.59158 29.43975 11381 ft 375 kts 97°
2026-05-04 18:42 40.59043 29.47351 11974 ft 368 kts 80°
2026-05-04 18:42 40.59358 29.50647 12564 ft 369 kts 78°
2026-05-04 18:42 40.59708 29.54003 13132 ft 373 kts 78°
2026-05-04 18:42 40.60056 29.57400 13764 ft 375 kts 78°
2026-05-04 18:43 40.60390 29.60816 14346 ft 378 kts 78°
2026-05-04 18:43 40.60712 29.64265 14901 ft 381 kts 78°
2026-05-04 18:43 40.61031 29.67744 15438 ft 385 kts 78°
2026-05-04 18:43 40.61351 29.71256 15954 ft 388 kts 78°
2026-05-04 18:44 40.61673 29.74801 16480 ft 392 kts 78°
2026-05-04 18:44 40.61892 29.77209 16849 ft 394 kts 78°
2026-05-04 18:44 40.62326 29.81978 17558 ft 398 kts 78°
2026-05-04 18:44 40.62654 29.85609 18162 ft 400 kts 79°
2026-05-04 18:45 40.62981 29.89257 18668 ft 402 kts 79°
2026-05-04 18:45 40.63312 29.92922 19140 ft 404 kts 78°
2026-05-04 18:45 40.63644 29.96599 19637 ft 406 kts 78°
2026-05-04 18:45 40.63975 30.00297 20127 ft 407 kts 78°
2026-05-04 18:46 40.64306 30.04009 20575 ft 409 kts 78°
2026-05-04 18:46 40.64639 30.07742 20988 ft 411 kts 78°
2026-05-04 18:46 40.64970 30.11486 21485 ft 412 kts 78°
2026-05-04 18:46 40.65303 30.15258 21794 ft 418 kts 77°
2026-05-04 18:47 40.65640 30.19073 22158 ft 421 kts 77°
2026-05-04 18:47 40.65975 30.22903 22629 ft 421 kts 77°
2026-05-04 18:47 40.66219 30.26763 23039 ft 429 kts 85°
2026-05-04 18:47 40.65661 30.30697 23381 ft 447 kts 102°
2026-05-04 18:48 40.64235 30.34413 23718 ft 464 kts 119°
2026-05-04 18:48 40.62240 30.37781 24051 ft 468 kts 123°
2026-05-04 18:48 40.60176 30.41111 24375 ft 470 kts 123°
2026-05-04 18:48 40.58133 30.44477 24671 ft 472 kts 122°
2026-05-04 18:49 40.56112 30.47881 24988 ft 473 kts 121°
2026-05-04 18:49 40.54307 30.51455 25296 ft 464 kts 112°
2026-05-04 18:49 40.52976 30.55213 25562 ft 458 kts 104°
2026-05-04 18:49 40.52081 30.59208 25767 ft 454 kts 96°
2026-05-04 18:50 40.51421 30.63271 26037 ft 455 kts 95°
2026-05-04 18:50 40.50740 30.67337 26328 ft 456 kts 96°
2026-05-04 18:50 40.50024 30.71405 26614 ft 458 kts 96°
2026-05-04 18:50 40.49247 30.75471 26876 ft 461 kts 98°
2026-05-04 18:51 40.48337 30.79518 27000 ft 465 kts 100°
2026-05-04 18:51 40.47361 30.83582 27000 ft 467 kts 101°
2026-05-04 18:51 40.46366 30.87643 26999 ft 466 kts 101°
2026-05-04 18:51 40.45380 30.91681 27003 ft 462 kts 101°
2026-05-04 18:52 40.44415 30.95685 27018 ft 460 kts 100°
2026-05-04 18:52 40.43459 30.99687 26997 ft 459 kts 100°
2026-05-04 18:52 40.42510 31.03687 27002 ft 458 kts 100°
2026-05-04 18:52 40.41561 31.07688 26996 ft 459 kts 100°
2026-05-04 18:53 40.40612 31.11685 26993 ft 459 kts 100°
2026-05-04 18:53 40.39659 31.15686 26986 ft 460 kts 100°
2026-05-04 18:53 40.38701 31.19692 26989 ft 461 kts 100°
2026-05-04 18:53 40.37781 31.23721 26983 ft 460 kts 98°
2026-05-04 18:54 40.37041 31.27810 27150 ft 460 kts 95°
2026-05-04 18:54 40.36405 31.31858 27477 ft 458 kts 94°
2026-05-04 18:54 40.35782 31.35985 27968 ft 454 kts 94°
2026-05-04 18:54 40.35166 31.40024 28413 ft 451 kts 94°
2026-05-04 18:55 40.34546 31.44002 28717 ft 451 kts 94°
2026-05-04 18:55 40.33243 31.52105 29337 ft 451 kts 95°
2026-05-04 18:55 40.32597 31.56044 29882 ft 447 kts 94°
2026-05-04 18:56 40.31942 31.60009 30297 ft 444 kts 94°
2026-05-04 18:56 40.31289 31.63966 30498 ft 446 kts 95°
2026-05-04 18:56 40.30634 31.67944 30667 ft 448 kts 95°
2026-05-04 18:56 40.29975 31.71934 30894 ft 448 kts 95°
2026-05-04 18:57 40.29313 31.75924 31129 ft 448 kts 95°
2026-05-04 18:57 40.28649 31.79918 31359 ft 449 kts 95°
2026-05-04 18:57 40.27983 31.83923 31539 ft 451 kts 96°
2026-05-04 18:57 40.27312 31.87949 31698 ft 453 kts 96°
2026-05-04 18:58 40.26629 31.91978 31952 ft 454 kts 97°
2026-05-04 18:58 40.25841 31.95991 32216 ft 455 kts 99°
2026-05-04 18:58 40.24980 31.99983 32420 ft 457 kts 100°
2026-05-04 18:58 40.24087 32.03975 32617 ft 458 kts 101°
2026-05-04 18:59 40.23187 32.07977 32870 ft 458 kts 101°
2026-05-04 18:59 40.22288 32.11992 32925 ft 462 kts 101°
2026-05-04 18:59 40.20504 32.20108 33292 ft 464 kts 102°
2026-05-04 19:00 40.19613 32.24164 33595 ft 463 kts 102°
2026-05-04 19:00 40.18726 32.28204 33818 ft 463 kts 102°
2026-05-04 19:00 40.17834 32.32264 33963 ft 465 kts 102°
2026-05-04 19:00 40.16941 32.36324 34145 ft 465 kts 103°
2026-05-04 19:01 40.15134 32.44519 34293 ft 471 kts 103°
2026-05-04 19:01 40.14238 32.48565 34537 ft 469 kts 103°
2026-05-04 19:01 40.13320 32.52701 34780 ft 467 kts 103°
2026-05-04 19:02 40.12427 32.56717 34913 ft 467 kts 103°
2026-05-04 19:02 40.11518 32.60804 34904 ft 469 kts 103°
2026-05-04 19:02 40.09694 32.68976 34914 ft 468 kts 104°
2026-05-04 19:03 40.07868 32.77131 34906 ft 468 kts 104°
2026-05-04 19:03 40.05893 32.85237 34906 ft 469 kts 108°
2026-05-04 19:04 40.03526 32.93179 34914 ft 470 kts 110°
2026-05-04 19:04 40.01112 33.01105 34903 ft 470 kts 109°
2026-05-04 19:05 39.98740 33.09041 34891 ft 470 kts 109°
2026-05-04 19:05 39.96387 33.16986 34893 ft 470 kts 109°
2026-05-04 19:06 39.94033 33.24924 34895 ft 470 kts 110°
2026-05-04 19:06 39.91669 33.32859 34891 ft 470 kts 110°
2026-05-04 19:07 39.89298 33.40795 34882 ft 470 kts 110°
2026-05-04 19:07 39.86920 33.48729 34880 ft 470 kts 110°
2026-05-04 19:08 39.84943 33.55313 34880 ft 470 kts 110°
2026-05-04 19:08 39.82653 33.63268 34878 ft 469 kts 105°
2026-05-04 19:09 39.81017 33.71472 34879 ft 468 kts 102°
2026-05-04 19:09 39.79436 33.79690 34873 ft 469 kts 103°
2026-05-04 19:10 39.78053 33.86512 34875 ft 469 kts 104°
2026-05-04 19:10 39.75711 33.95957 34874 ft 471 kts 110°
2026-05-04 19:11 39.73354 34.03906 34878 ft 471 kts 111°
2026-05-04 19:11 39.71021 34.11872 34866 ft 473 kts 110°
2026-05-04 19:12 39.67590 34.23892 34864 ft 474 kts 110°
2026-05-04 19:13 39.65296 34.31912 34865 ft 474 kts 110°
2026-05-04 19:13 39.63001 34.39890 34860 ft 475 kts 110°
2026-05-04 19:14 39.60697 34.47919 34859 ft 475 kts 110°
2026-05-04 19:14 39.58385 34.55950 34864 ft 475 kts 110°
2026-05-04 19:15 39.56067 34.63974 34861 ft 475 kts 111°
2026-05-04 19:15 39.53744 34.71993 34857 ft 475 kts 111°
2026-05-04 19:16 39.51418 34.80003 34863 ft 475 kts 111°
2026-05-04 19:16 39.49086 34.88002 34857 ft 474 kts 111°
2026-05-04 19:17 39.46760 34.95978 34860 ft 474 kts 111°
2026-05-04 19:17 39.44426 35.03939 34857 ft 473 kts 111°
2026-05-04 19:18 39.42087 35.11894 34852 ft 473 kts 111°
2026-05-04 19:18 39.39747 35.19833 34853 ft 472 kts 111°
2026-05-04 19:19 39.37443 35.27785 34852 ft 472 kts 111°
2026-05-04 19:19 39.35146 35.35733 34852 ft 472 kts 111°
2026-05-04 19:20 39.32837 35.43683 34851 ft 473 kts 111°
2026-05-04 19:20 39.30519 35.51631 34861 ft 473 kts 111°
2026-05-04 19:21 39.28193 35.59581 34859 ft 474 kts 111°
2026-05-04 19:21 39.25872 35.67490 34859 ft 474 kts 112°
2026-05-04 19:22 39.23528 35.75453 34874 ft 475 kts 112°
2026-05-04 19:22 39.21175 35.83426 34875 ft 476 kts 112°
2026-05-04 19:23 39.18815 35.91400 34873 ft 476 kts 112°
2026-05-04 19:23 39.16451 35.99367 34874 ft 476 kts 112°
2026-05-04 19:24 39.14671 36.07592 34888 ft 478 kts 101°
2026-05-04 19:24 39.13639 36.16059 34879 ft 479 kts 100°
2026-05-04 19:25 39.12631 36.24536 34887 ft 478 kts 100°
2026-05-04 19:25 39.11579 36.32988 34890 ft 478 kts 101°
2026-05-04 19:26 39.10495 36.41442 34890 ft 478 kts 101°
2026-05-04 19:26 39.09401 36.49881 34887 ft 478 kts 101°
2026-05-04 19:27 39.08301 36.58316 34880 ft 477 kts 101°
2026-05-04 19:27 39.07198 36.66740 34891 ft 477 kts 101°
2026-05-04 19:28 39.06090 36.75158 34889 ft 477 kts 101°
2026-05-04 19:28 39.04974 36.83581 34883 ft 477 kts 102°
2026-05-04 19:29 39.03854 36.91991 34867 ft 478 kts 102°
2026-05-04 19:29 39.02727 37.00407 34879 ft 478 kts 102°
2026-05-04 19:30 39.01592 37.08834 34871 ft 478 kts 102°
2026-05-04 19:30 39.00450 37.17263 34867 ft 479 kts 102°
2026-05-04 19:31 38.99301 37.25694 34859 ft 479 kts 102°
2026-05-04 19:31 38.98145 37.34137 34869 ft 480 kts 102°
2026-05-04 19:32 38.96980 37.42589 34864 ft 481 kts 103°
2026-05-04 19:32 38.95814 37.51004 34869 ft 482 kts 103°
2026-05-04 19:33 38.94626 37.59539 34858 ft 483 kts 103°
2026-05-04 19:33 38.93442 37.67988 34545 ft 489 kts 103°
2026-05-04 19:33 38.92836 37.72288 34024 ft 487 kts 103°
2026-05-04 19:34 38.92233 37.76567 33193 ft 488 kts 103°
2026-05-04 19:34 38.91627 37.80856 32485 ft 486 kts 103°
2026-05-04 19:34 38.91024 37.85117 31762 ft 484 kts 103°
2026-05-04 19:34 38.90420 37.89368 31025 ft 484 kts 104°
2026-05-04 19:35 38.89815 37.93614 30303 ft 483 kts 104°
2026-05-04 19:35 38.89210 37.97846 29459 ft 482 kts 104°
2026-05-04 19:35 38.88607 38.02054 28577 ft 475 kts 104°
2026-05-04 19:35 38.88010 38.06216 27762 ft 473 kts 104°
2026-05-04 19:36 38.87416 38.10340 27224 ft 466 kts 104°
2026-05-04 19:36 38.86829 38.14409 26640 ft 461 kts 104°
2026-05-04 19:36 38.86247 38.18428 26180 ft 456 kts 104°
2026-05-04 19:36 38.85669 38.22405 25481 ft 451 kts 104°
2026-05-04 19:37 38.85096 38.26342 24911 ft 447 kts 104°
2026-05-04 19:37 38.84526 38.30243 24349 ft 443 kts 104°
2026-05-04 19:37 38.83959 38.34117 23786 ft 439 kts 104°
2026-05-04 19:37 38.83396 38.37952 23198 ft 436 kts 104°
2026-05-04 19:38 38.82837 38.41758 22550 ft 433 kts 104°
2026-05-04 19:38 38.82282 38.45525 21988 ft 427 kts 104°
2026-05-04 19:38 38.81734 38.49242 21418 ft 422 kts 104°
2026-05-04 19:38 38.81191 38.52919 20868 ft 418 kts 104°
2026-05-04 19:39 38.80650 38.56566 20310 ft 414 kts 104°
2026-05-04 19:39 38.80112 38.60179 19763 ft 411 kts 104°
2026-05-04 19:39 38.79577 38.63759 19231 ft 407 kts 104°
2026-05-04 19:39 38.79046 38.67313 18694 ft 405 kts 104°
2026-05-04 19:40 38.78517 38.70844 18153 ft 402 kts 104°
2026-05-04 19:40 38.77990 38.74353 17546 ft 399 kts 104°
2026-05-04 19:40 38.77468 38.77828 16991 ft 396 kts 104°
2026-05-04 19:40 38.76950 38.81275 16427 ft 393 kts 104°
2026-05-04 19:41 38.76434 38.84701 15898 ft 389 kts 104°
2026-05-04 19:41 38.75928 38.88050 15375 ft 387 kts 104°
2026-05-04 19:41 38.75496 38.91441 14846 ft 387 kts 97°
2026-05-04 19:41 38.75464 38.94883 14335 ft 386 kts 92°
2026-05-04 19:42 38.75550 38.98310 13800 ft 384 kts 92°
2026-05-04 19:42 38.75618 39.01737 13157 ft 384 kts 92°
2026-05-04 19:42 38.75659 39.05147 12605 ft 381 kts 93°
2026-05-04 19:42 38.75681 39.08526 12064 ft 378 kts 93°
2026-05-04 19:43 38.75693 39.11874 11549 ft 374 kts 93°
2026-05-04 19:43 38.75701 39.15192 11059 ft 370 kts 94°
2026-05-04 19:43 38.75711 39.18429 10887 ft 355 kts 94°
2026-05-04 19:43 38.75723 39.21497 10771 ft 335 kts 94°
2026-05-04 19:44 38.75728 39.24399 10679 ft 317 kts 94°
2026-05-04 19:44 38.75732 39.27160 10535 ft 303 kts 94°
2026-05-04 19:44 38.75735 39.29801 10406 ft 290 kts 95°
2026-05-04 19:44 38.75737 39.32344 10292 ft 283 kts 95°
2026-05-04 19:45 38.75736 39.34865 10192 ft 283 kts 95°
2026-05-04 19:45 38.75733 39.37397 10091 ft 286 kts 95°
2026-05-04 19:45 38.75733 39.39960 9935 ft 291 kts 95°
2026-05-04 19:45 38.75732 39.42554 9636 ft 289 kts 95°
2026-05-04 19:46 38.75734 39.45106 9303 ft 284 kts 95°
2026-05-04 19:46 38.75735 39.47608 9010 ft 277 kts 95°
2026-05-04 19:46 38.75734 39.50037 8714 ft 269 kts 95°
2026-05-04 19:46 38.75733 39.52381 8494 ft 257 kts 96°
2026-05-04 19:47 38.75692 39.54621 8215 ft 241 kts 107°
2026-05-04 19:47 38.74890 39.56228 8242 ft 203 kts 146°
2026-05-04 19:47 38.73932 39.57546 8080 ft 209 kts 120°
2026-05-04 19:47 38.73207 39.59101 8169 ft 209 kts 139°
2026-05-04 19:48 38.71877 39.59878 8223 ft 221 kts 174°
2026-05-04 19:48 38.70312 39.60033 8205 ft 228 kts 171°
2026-05-04 19:48 38.68760 39.60369 8191 ft 224 kts 172°
2026-05-04 19:48 38.67268 39.60053 8177 ft 221 kts 211°
2026-05-04 19:49 38.66179 39.58675 8205 ft 221 kts 224°
2026-05-04 19:49 38.65333 39.57006 8181 ft 232 kts 244°
2026-05-04 19:49 38.64867 39.54913 7623 ft 254 kts 253°
2026-05-04 19:49 38.64488 39.52704 7196 ft 257 kts 252°
2026-05-04 19:50 38.64079 39.50493 6825 ft 254 kts 252°
2026-05-04 19:50 38.63659 39.48320 6431 ft 250 kts 252°
2026-05-04 19:50 38.63242 39.46177 6028 ft 246 kts 252°
2026-05-04 19:50 38.62840 39.44100 5633 ft 234 kts 252°
2026-05-04 19:51 38.62460 39.42139 5316 ft 220 kts 253°
2026-05-04 19:51 38.62102 39.40284 4964 ft 209 kts 253°
2026-05-04 19:51 38.61757 39.38507 4638 ft 202 kts 253°
2026-05-04 19:51 38.61428 39.36798 4306 ft 194 kts 253°
2026-05-04 19:52 38.61113 39.35167 4001 ft 185 kts 255°
2026-05-04 19:52 38.60818 39.33641 3706 ft 171 kts 256°
2026-05-04 19:52 38.60546 39.32223 3478 ft 160 kts 254°
2026-05-04 19:52 38.60301 39.30847 3241 ft 156 kts 254°
2026-05-04 19:53 38.60084 39.29577 3196 ft 139 kts 255°
2026-05-04 19:53 38.59882 39.28175 3222 ft 184 kts 256°
2026-05-04 19:53 38.59586 39.26478 3760 ft 203 kts 257°
2026-05-04 19:53 38.59253 39.24684 4419 ft 214 kts 253°
2026-05-04 19:54 38.58794 39.22774 4405 ft 240 kts 248°
2026-05-04 19:54 38.58227 39.20740 4843 ft 236 kts 249°
2026-05-04 19:54 38.57854 39.19473 5352 ft 226 kts 244°
2026-05-04 19:54 38.57214 39.17618 5664 ft 234 kts 242°
2026-05-04 19:55 38.56534 39.15671 6085 ft 244 kts 244°
2026-05-04 19:55 38.55823 39.13018 7094 ft 231 kts 249°
2026-05-04 19:55 38.55349 39.11104 7823 ft 228 kts 247°
2026-05-04 19:55 38.54819 39.09137 8158 ft 238 kts 246°
2026-05-04 19:56 38.54270 39.07145 8589 ft 237 kts 246°
2026-05-04 19:56 38.53748 39.05154 9045 ft 239 kts 251°
2026-05-04 19:56 38.53693 39.03670 9057 ft 257 kts 272°
2026-05-04 19:56 38.54249 39.01478 8603 ft 272 kts 293°
2026-05-04 19:57 38.55295 38.99496 8547 ft 259 kts 306°
2026-05-04 19:57 38.56621 38.97957 8159 ft 261 kts 322°
2026-05-04 19:57 38.58185 38.96867 7902 ft 260 kts 338°
2026-05-04 19:57 38.59972 38.96395 7413 ft 265 kts 355°
2026-05-04 19:58 38.61767 38.96530 7379 ft 248 kts 12°
2026-05-04 19:58 38.63382 38.97230 7304 ft 247 kts 34°
2026-05-04 19:58 38.64672 38.98745 6822 ft 260 kts 58°
2026-05-04 19:58 38.65542 39.00813 6249 ft 261 kts 70°
2026-05-04 19:59 38.66094 39.02856 6465 ft 231 kts 84°
2026-05-04 19:59 38.66081 39.04837 6555 ft 223 kts 107°
2026-05-04 19:59 38.65568 39.06724 6771 ft 226 kts 114°
2026-05-04 19:59 38.64932 39.08581 7146 ft 229 kts 119°
2026-05-04 20:00 38.64242 39.10437 7613 ft 233 kts 119°
2026-05-04 20:00 38.63554 39.12299 8290 ft 227 kts 117°
2026-05-04 20:00 38.62926 39.14211 8610 ft 240 kts 124°
2026-05-04 20:00 38.62083 39.16051 8924 ft 242 kts 120°
2026-05-04 20:01 38.61408 39.18075 8885 ft 246 kts 116°
2026-05-04 20:01 38.60945 39.20186 8853 ft 249 kts 107°
2026-05-04 20:01 38.60586 39.22375 8528 ft 252 kts 108°
2026-05-04 20:01 38.60325 39.24509 8525 ft 238 kts 99°
2026-05-04 20:02 38.60358 39.26636 7962 ft 246 kts 89°
2026-05-04 20:02 38.60582 39.28885 7398 ft 252 kts 86°
2026-05-04 20:02 38.60776 39.30970 7536 ft 227 kts 88°
2026-05-04 20:02 38.60997 39.33015 6822 ft 242 kts 84°
2026-05-04 20:03 38.61326 39.35151 6357 ft 245 kts 83°
2026-05-04 20:03 38.61649 39.37278 6030 ft 239 kts 82°
2026-05-04 20:03 38.62069 39.39219 6131 ft 219 kts 73°
2026-05-04 20:03 38.62814 39.40850 6091 ft 214 kts 54°
2026-05-04 20:04 38.63928 39.42201 6337 ft 202 kts 39°
2026-05-04 20:04 38.65168 39.43076 6947 ft 222 kts 29°
2026-05-04 20:04 38.66664 39.44032 6842 ft 249 kts 29°
2026-05-04 20:04 38.68224 39.45010 7264 ft 247 kts 32°
2026-05-04 20:05 38.69662 39.46075 8081 ft 238 kts 37°
2026-05-04 20:05 38.71036 39.47392 8346 ft 252 kts 45°
2026-05-04 20:05 38.72347 39.48940 8718 ft 259 kts 53°
2026-05-04 20:05 38.73288 39.50873 9146 ft 252 kts 71°
2026-05-04 20:06 38.73983 39.52860 9758 ft 250 kts 72°
2026-05-04 20:06 38.74616 39.55053 9777 ft 263 kts 77°
2026-05-04 20:06 38.75083 39.57243 10135 ft 251 kts 83°
2026-05-04 20:06 38.75318 39.59428 10661 ft 239 kts 99°
2026-05-04 20:07 38.74935 39.61427 11116 ft 239 kts 118°
2026-05-04 20:07 38.74030 39.63235 11307 ft 236 kts 135°
2026-05-04 20:07 38.72871 39.64607 11460 ft 218 kts 148°
2026-05-04 20:07 38.71613 39.65609 11130 ft 215 kts 155°
2026-05-04 20:08 38.70184 39.66323 10514 ft 224 kts 173°
2026-05-04 20:08 38.68610 39.66105 9837 ft 236 kts 197°
2026-05-04 20:08 38.67172 39.65138 9712 ft 227 kts 212°
2026-05-04 20:08 38.66058 39.63837 9764 ft 212 kts 225°
2026-05-04 20:09 38.65304 39.62169 9217 ft 227 kts 244°
2026-05-04 20:09 38.64836 39.60191 8715 ft 235 kts 248°
2026-05-04 20:09 38.64394 39.58223 8502 ft 224 kts 249°
2026-05-04 20:09 38.64067 39.56322 8303 ft 215 kts 258°
2026-05-04 20:10 38.64079 39.54409 7985 ft 215 kts 269°
2026-05-04 20:10 38.64128 39.52556 7610 ft 205 kts 265°
2026-05-04 20:10 38.64276 39.50749 7267 ft 200 kts 274°
2026-05-04 20:10 38.64320 39.48967 6526 ft 209 kts 257°
2026-05-04 20:11 38.63948 39.47214 6058 ft 200 kts 240°
2026-05-04 20:11 38.63414 39.45600 5652 ft 195 kts 245°
2026-05-04 20:11 38.62958 39.43962 5182 ft 194 kts 246°
2026-05-04 20:11 38.62490 39.42377 4791 ft 190 kts 245°
2026-05-04 20:12 38.61952 39.40906 4668 ft 173 kts 242°
2026-05-04 20:12 38.61506 39.39445 4207 ft 184 kts 248°
2026-05-04 20:12 38.61004 39.37896 3611 ft 192 kts 246°
2026-05-04 20:12 38.60498 39.36376 3528 ft 176 kts 250°
2026-05-04 20:13 38.59972 39.34879 4141 ft 192 kts 245°
2026-05-04 20:13 38.59604 39.33216 4858 ft 210 kts 262°
2026-05-04 20:13 38.59466 39.31229 5082 ft 230 kts 259°
2026-05-04 20:13 38.59168 39.29129 5383 ft 249 kts 253°
2026-05-04 20:14 38.58725 39.26991 6039 ft 253 kts 252°
2026-05-04 20:14 38.58262 39.24841 6971 ft 250 kts 250°
2026-05-04 20:14 38.57755 39.22711 7815 ft 250 kts 248°
2026-05-04 20:14 38.57213 39.20599 8573 ft 251 kts 247°
2026-05-04 20:15 38.56640 39.18492 8942 ft 252 kts 246°
2026-05-04 20:15 38.56046 39.16379 8990 ft 253 kts 246°
2026-05-04 20:15 38.55443 39.14267 8986 ft 253 kts 245°
2026-05-04 20:15 38.54839 39.12167 8996 ft 251 kts 246°
2026-05-04 20:16 38.54248 39.10069 8982 ft 252 kts 251°
2026-05-04 20:16 38.54278 39.07814 8854 ft 265 kts 288°
2026-05-04 20:16 38.55146 39.05758 8954 ft 263 kts 303°
2026-05-04 20:16 38.56536 39.04284 8981 ft 262 kts 333°
2026-05-04 20:17 38.58300 39.03866 8987 ft 259 kts
2026-05-04 20:17 38.59988 39.04569 8933 ft 255 kts 36°
2026-05-04 20:17 38.61211 39.06131 8740 ft 246 kts 64°
2026-05-04 20:17 38.61796 39.08144 8417 ft 240 kts 89°
2026-05-04 20:18 38.61536 39.10168 8270 ft 231 kts 113°
2026-05-04 20:18 38.61335 39.12251 8216 ft 245 kts 85°
2026-05-04 20:18 38.61781 39.14347 8208 ft 243 kts 76°
2026-05-04 20:18 38.62328 39.16394 8205 ft 243 kts 75°
2026-05-04 20:19 38.62853 39.18444 8192 ft 240 kts 82°
2026-05-04 20:19 38.63150 39.20527 8199 ft 238 kts 85°
2026-05-04 20:19 38.63427 39.22620 8210 ft 239 kts 85°
2026-05-04 20:19 38.63706 39.24721 8195 ft 240 kts 85°
2026-05-04 20:20 38.63980 39.26831 8203 ft 241 kts 85°
2026-05-04 20:20 38.64284 39.28945 8198 ft 244 kts 79°
2026-05-04 20:20 38.64771 39.31027 8193 ft 245 kts 76°
2026-05-04 20:20 38.65295 39.33101 8196 ft 245 kts 76°
2026-05-04 20:21 38.65827 39.35173 8177 ft 245 kts 76°
2026-05-04 20:21 38.66364 39.37221 8185 ft 241 kts 76°
2026-05-04 20:21 38.67428 39.41235 8174 ft 234 kts 76°
2026-05-04 20:22 38.67954 39.43195 8181 ft 232 kts 76°
2026-05-04 20:22 38.68479 39.45151 8186 ft 234 kts 76°
2026-05-04 20:22 38.69001 39.47115 8199 ft 238 kts 76°
2026-05-04 20:22 38.69535 39.49126 8190 ft 238 kts 76°
2026-05-04 20:23 38.70068 39.51125 8187 ft 237 kts 76°
2026-05-04 20:23 38.70599 39.53121 8201 ft 237 kts 76°
2026-05-04 20:23 38.71130 39.55113 8195 ft 236 kts 76°
2026-05-04 20:23 38.71655 39.57075 8218 ft 228 kts 76°
2026-05-04 20:24 38.71914 39.59031 8195 ft 219 kts 103°
2026-05-04 20:24 38.71337 39.60740 8206 ft 208 kts 136°
2026-05-04 20:24 38.70131 39.61681 8214 ft 205 kts 162°
2026-05-04 20:24 38.68755 39.62174 8194 ft 203 kts 166°
2026-05-04 20:25 38.67414 39.62121 8179 ft 192 kts 204°
2026-05-04 20:25 38.66570 39.60877 8203 ft 188 kts 244°
2026-05-04 20:25 38.65936 39.59454 8190 ft 182 kts 224°
2026-05-04 20:25 38.65347 39.58034 8169 ft 187 kts 257°
2026-05-04 20:26 38.65149 39.56376 8071 ft 195 kts 252°
2026-05-04 20:26 38.64857 39.54635 7587 ft 197 kts 252°
2026-05-04 20:26 38.64555 39.52966 7238 ft 188 kts 251°
2026-05-04 20:26 38.64250 39.51367 6963 ft 183 kts 250°
2026-05-04 20:27 38.63941 39.49778 6699 ft 186 kts 250°
2026-05-04 20:27 38.63625 39.48157 6407 ft 189 kts 251°
2026-05-04 20:27 38.63309 39.46528 6108 ft 187 kts 250°
2026-05-04 20:27 38.63003 39.44941 5800 ft 181 kts 251°
2026-05-04 20:28 38.62704 39.43401 5523 ft 178 kts 252°
2026-05-04 20:28 38.62406 39.41866 5269 ft 178 kts 252°
2026-05-04 20:28 38.62108 39.40322 4978 ft 178 kts 253°
2026-05-04 20:28 38.61818 39.38817 4700 ft 175 kts 253°
2026-05-04 20:29 38.61530 39.37334 4438 ft 168 kts 255°
2026-05-04 20:29 38.61257 39.35922 4171 ft 161 kts 255°
2026-05-04 20:29 38.60996 39.34563 3888 ft 154 kts 256°
2026-05-04 20:29 38.60742 39.33243 3667 ft 150 kts 256°
2026-05-04 20:30 38.60517 39.31987 3418 ft 141 kts 257°
2026-05-04 20:30 38.60283 39.30798 3182 ft 136 kts 251°
2026-05-04 20:30 38.60056 39.29643 2952 ft 132 kts 253°
2026-05-04 20:30 38.59861 39.28660 2934 ft 85 kts 256°
2026-05-04 20:31 38.59769 39.28183 2934 ft 35 kts 256°
2026-05-04 20:31 38.59711 39.27896 2930 ft 32 kts 255°
2026-05-04 20:31 38.59663 39.27633 2933 ft 29 kts 257°
2026-05-04 20:31 38.59629 39.27460 2933 ft 11 kts 255°
2026-05-04 20:32 38.59611 39.27365 2933 ft 11 kts 255°
2026-05-04 20:32 38.59589 39.27256 2932 ft 14 kts 256°
2026-05-04 20:32 38.59565 39.27138 2928 ft 11 kts 255°
2026-05-04 20:32 38.59558 39.27102 2932 ft 0 kts 261°
2026-05-04 20:33 38.59558 39.27101 2932 ft 1 kts 265°
2026-05-04 20:33 38.59563 39.27089 2932 ft 0 kts 311°
2026-05-04 20:33 38.59563 39.27082 2932 ft 1 kts 274°
2026-05-04 20:33 38.59563 39.27056 2932 ft 4 kts 269°
2026-05-04 20:34 38.59568 39.27008 2932 ft 7 kts 284°
2026-05-04 20:34 38.59595 39.26945 2928 ft 10 kts 303°
2026-05-04 20:34 38.59683 39.26901 2910 ft 13 kts 347°
2026-05-04 20:34 38.59773 39.26877 2910 ft 13 kts 347°
2026-05-04 20:35 38.59813 39.26866 2912 ft 6 kts 347°
2026-05-04 20:35 38.59848 39.26846 2913 ft 5 kts 325°
2026-05-04 20:35 38.59868 39.26806 2912 ft 5 kts 305°
2026-05-04 20:35 38.59903 39.26788 2914 ft 5 kts 344°
2026-05-04 20:36 38.59931 39.26778 2912 ft 3 kts 345°
2026-05-04 20:36 38.59938 39.26775 2915 ft 0 kts 345°